Terug naar catalogus

COSMOS 1801

ActiefMilitairLEO
NORAD 17145·PAYLOAD·🇷🇺 Russia

Gelanceerd Nov 21, 1986 vanaf Plesetsk Cosmodrome

Loading…

Volgende Passages (komende 24 uur)

TLE

VersSource: Space-Track

Epoch: Sep 14, 2026, 09:50 UTC

1 17145U 86092H   26257.41023450 -.00000020  00000-0 -21933-4 0  9990
2 17145  74.0108 236.0295 0055209 228.9029 204.6809 12.58855737829661

Volg COSMOS 1801 in realtime met AllMySat

Download on the App Store